COSMOS 2251 DEB, 35071

Orbit data source: Space-Track

COSMOS 2251 DEB, 35071 is space debris in LEO originally from a launch on Wed, 16 Jun 1993 UTC launched from the Plesetsk Missile And Space Complex (PKMTR). The debris from Iridium 33, an American commercial communications satellite, has been tracked extensively since its accidental collision with the defunct Russian satellite Cosmos 2251 in 2009. This event, occurring at high speed in low Earth orbit (LEO), generated thousands of pieces of space debris, significantly increasing the risk of further collisions. The Iridium 33 debris cloud has impacted space traffic management and orbital debris mitigation strategies, making it a subject of ongoing study in space situational awareness.

Loading next visibility...
Identifier
35071, 1993-036AJA
Orbit
LEO
Country
Flag of CISCIS
Related business
Manufacturer
Unknown
Mission
Spacecraft
Bus & Motor
Unknown
Mass
Unknown
Launch date (UTC)
1993-06-16 (33 years ago)
Launch vehicle
Unknown
Launch site
Plesetsk Missile And Space Complex (PKMTR)
Object type
Payload
Rocket body
Debris
Shape & HBR
Unknown shape, 0.1 m
Radar Cross Section
Small (<0.1 m²)

Expand to show TLE details & history
Last TLE update: 1 week ago

TLE from 1 week ago
0 COSMOS 2251 DEB
1 35071U 93036AJA 26136.88855908  .00007695  00000-0  49106-3 0  9996
2 35071  73.9319 213.4156 0063181  70.8476 289.9539 15.07164045698712
Epoch: 2026-05-16T21:19Z
TLE epoch observation values (Epoch: 2026-05-16T21:19:31.504Z)
Latitude
0.00001°
Longitude
18.93528°
Altitude
532.877 km
Speed
7.605 km/s
True Right ascension
14h 13m 39s
True Declination
0° 00' 00"
Sunlit
Object was in full shadow at epoch
Visualization orbit readout
Latitude
Unknown
Longitude
Unknown
Altitude
Unknown
Speed
Unknown
Apparent Right ascension
Unknown
Apparent Declination
Unknown
Sunlit
N/A
Visualization observer readout
Local Sidereal Time
22:10:33
Azimuth
Unknown
Elevation
Unknown
Doppler factor
Unknown
Orbital elements
Apogee altitude
586.151 km
Perigee altitude
498.701 km
Semi-major axis
6,920.563 km
Eccentricity
0.00632
Inclination
73.9319°
RAAN
213.4156°
Arg. of periapsis
70.8476°
True anomaly
289.27154°
Mean anomaly
289.9539°
Eccentric anomaly
289.6129°
Mean motion
3.76991 °/min
Orbital period
95.49 mins
BSTAR
0.00049106
Loading maneuver chart data...
Computing Atmospheric mass density...
Loading historical data...
Loading historical data...
Loading historical data...
Loading historical data...
Loading historical data...
Loading historical data...
Loading historical data...

Documentation

Showing up to 5 results
|